TAM3223 SBCF-SBRJ

Flight info

Callsign TAM3223
Flight time 0h 43m
Altitude 28000
Route MAVGU UZ3 TOKIM
Aircraft A320/M-SDE3FGHIRWY/LB1

Departure

Time 2026-05-08 12:51
Airport Tancredo Neves International Airport (SBCF)

Arrival

Time 2026-05-08 13:35
Airport Santos Dumont Airport (SBRJ)
Time Latitude Longitude Altitude Speed Heading
2026-05-08 12:21 -19.63351 -43.96371 2834 ft 0 kts 39°
2026-05-08 12:31 -19.63353 -43.96373 2833 ft 3 kts 39°
2026-05-08 12:31 -19.63374 -43.96386 2839 ft 4 kts
2026-05-08 12:32 -19.63396 -43.96379 2838 ft 4 kts 304°
2026-05-08 12:32 -19.63401 -43.96370 2838 ft 1 kts 297°
2026-05-08 12:36 -19.63387 -43.96398 2840 ft 7 kts 300°
2026-05-08 12:36 -19.63351 -43.96444 2837 ft 9 kts 317°
2026-05-08 12:36 -19.63299 -43.96492 2837 ft 9 kts 320°
2026-05-08 12:36 -19.63248 -43.96538 2837 ft 11 kts 319°
2026-05-08 12:37 -19.63194 -43.96587 2837 ft 9 kts 315°
2026-05-08 12:37 -19.63204 -43.96636 2838 ft 7 kts 230°
2026-05-08 12:37 -19.63244 -43.96684 2837 ft 10 kts 227°
2026-05-08 12:37 -19.63264 -43.96739 2837 ft 8 kts 297°
2026-05-08 12:38 -19.63224 -43.96784 2837 ft 11 kts 317°
2026-05-08 12:38 -19.63149 -43.96853 2837 ft 18 kts 319°
2026-05-08 12:38 -19.63049 -43.96946 2838 ft 20 kts 319°
2026-05-08 12:38 -19.62937 -43.97050 2838 ft 22 kts 320°
2026-05-08 12:39 -19.62834 -43.97145 2838 ft 24 kts 319°
2026-05-08 12:46 -19.62832 -43.97147 2838 ft 24 kts 319°
2026-05-08 12:46 -19.62769 -43.97208 2838 ft 10 kts 322°
2026-05-08 12:47 -19.62700 -43.97270 2838 ft 16 kts 318°
2026-05-08 12:47 -19.62601 -43.97361 2838 ft 20 kts 319°
2026-05-08 12:47 -19.62492 -43.97462 2837 ft 21 kts 319°
2026-05-08 12:47 -19.62378 -43.97567 2837 ft 22 kts 319°
2026-05-08 12:48 -19.62278 -43.97661 2838 ft 15 kts 318°
2026-05-08 12:48 -19.62236 -43.97726 2839 ft 10 kts 266°
2026-05-08 12:48 -19.62254 -43.97758 2838 ft 0 kts 231°
2026-05-08 12:49 -19.62262 -43.97767 2838 ft 5 kts 226°
2026-05-08 12:49 -19.62318 -43.97786 2837 ft 10 kts 191°
2026-05-08 12:50 -19.62384 -43.97787 2836 ft 9 kts 156°
2026-05-08 12:50 -19.62488 -43.97692 2836 ft 45 kts 139°
2026-05-08 12:50 -19.62905 -43.97306 2838 ft 111 kts 139°
2026-05-08 12:50 -19.63631 -43.96635 2836 ft 167 kts 139°
2026-05-08 12:51 -19.64597 -43.95751 3273 ft 191 kts 138°
2026-05-08 12:51 -19.66633 -43.93876 4449 ft 208 kts 135°
2026-05-08 12:51 -19.67780 -43.92798 4690 ft 232 kts 135°
2026-05-08 12:52 -19.69055 -43.91606 4985 ft 257 kts 135°
2026-05-08 12:52 -19.71917 -43.88950 6244 ft 283 kts 137°
2026-05-08 12:52 -19.73423 -43.87560 6990 ft 290 kts 137°
2026-05-08 12:53 -19.74955 -43.86144 7784 ft 294 kts 136°
2026-05-08 12:53 -19.76501 -43.84714 8598 ft 296 kts 136°
2026-05-08 12:53 -19.78061 -43.83271 9401 ft 299 kts 136°
2026-05-08 12:53 -19.79617 -43.81830 10194 ft 302 kts 136°
2026-05-08 12:54 -19.81281 -43.80405 10663 ft 318 kts 144°
2026-05-08 12:54 -19.83208 -43.79086 10848 ft 341 kts 146°
2026-05-08 12:54 -19.85261 -43.77698 11181 ft 356 kts 146°
2026-05-08 12:54 -19.87370 -43.76278 11776 ft 361 kts 146°
2026-05-08 12:55 -19.89539 -43.74903 12437 ft 366 kts 153°
2026-05-08 12:55 -19.91959 -43.74003 13102 ft 372 kts 167°
2026-05-08 12:55 -19.94543 -43.73732 13767 ft 377 kts 181°
2026-05-08 12:55 -19.97141 -43.74138 14414 ft 379 kts 195°
2026-05-08 12:56 -19.99628 -43.75125 14913 ft 385 kts 202°
2026-05-08 12:56 -20.02110 -43.76223 15513 ft 386 kts 202°
2026-05-08 12:56 -20.04601 -43.77335 16060 ft 390 kts 202°
2026-05-08 12:56 -20.07192 -43.78221 16581 ft 393 kts 191°
2026-05-08 12:57 -20.09895 -43.78714 17100 ft 395 kts 188°
2026-05-08 12:57 -20.12592 -43.79171 17602 ft 399 kts 188°
2026-05-08 12:57 -20.15350 -43.79637 18108 ft 403 kts 188°
2026-05-08 12:57 -20.18126 -43.80109 18614 ft 406 kts 188°
2026-05-08 12:58 -20.20926 -43.80587 19107 ft 407 kts 188°
2026-05-08 12:58 -20.23730 -43.81071 19590 ft 410 kts 189°
2026-05-08 12:58 -20.26552 -43.81563 20089 ft 411 kts 189°
2026-05-08 12:58 -20.29381 -43.82057 20618 ft 413 kts 189°
2026-05-08 12:59 -20.32222 -43.82550 21151 ft 413 kts 189°
2026-05-08 12:59 -20.35061 -43.83040 21696 ft 414 kts 190°
2026-05-08 12:59 -20.37910 -43.83531 22191 ft 415 kts 189°
2026-05-08 12:59 -20.40765 -43.84021 22691 ft 416 kts 189°
2026-05-08 13:00 -20.43632 -43.84514 23166 ft 418 kts 190°
2026-05-08 13:00 -20.46503 -43.85010 23644 ft 419 kts 189°
2026-05-08 13:00 -20.49390 -43.85511 24024 ft 421 kts 190°
2026-05-08 13:00 -20.52289 -43.86012 24374 ft 423 kts 190°
2026-05-08 13:01 -20.55202 -43.86520 24719 ft 425 kts 192°
2026-05-08 13:01 -20.58039 -43.87290 25031 ft 427 kts 198°
2026-05-08 13:01 -20.60890 -43.88190 25366 ft 429 kts 198°
2026-05-08 13:01 -20.63762 -43.89102 25697 ft 431 kts 198°
2026-05-08 13:02 -20.66642 -43.90017 26023 ft 433 kts 198°
2026-05-08 13:02 -20.69536 -43.90932 26352 ft 435 kts 198°
2026-05-08 13:02 -20.72448 -43.91854 26683 ft 437 kts 198°
2026-05-08 13:02 -20.75367 -43.92780 26999 ft 439 kts 198°
2026-05-08 13:03 -20.78304 -43.93711 27319 ft 441 kts 198°
2026-05-08 13:03 -20.81251 -43.94645 27620 ft 443 kts 198°
2026-05-08 13:03 -20.84221 -43.95585 27926 ft 445 kts 198°
2026-05-08 13:03 -20.86183 -43.96207 28106 ft 446 kts 199°
2026-05-08 13:04 -20.91086 -43.97765 28180 ft 436 kts 199°
2026-05-08 13:04 -20.98402 -44.00077 28179 ft 433 kts 198°
2026-05-08 13:05 -21.04189 -44.01897 28177 ft 433 kts 199°
2026-05-08 13:05 -21.09973 -44.03721 28200 ft 433 kts 199°
2026-05-08 13:06 -21.15752 -44.05547 28203 ft 433 kts 199°
2026-05-08 13:06 -21.21539 -44.07369 28167 ft 433 kts 199°
2026-05-08 13:07 -21.27282 -44.09186 28161 ft 432 kts 199°
2026-05-08 13:07 -21.33051 -44.11011 28160 ft 432 kts 199°
2026-05-08 13:08 -21.38827 -44.12840 28161 ft 433 kts 199°
2026-05-08 13:08 -21.44605 -44.14643 28163 ft 433 kts 196°
2026-05-08 13:09 -21.50618 -44.15432 28159 ft 436 kts 187°
2026-05-08 13:09 -21.56669 -44.15978 28158 ft 436 kts 187°
2026-05-08 13:10 -21.62464 -44.16513 27721 ft 432 kts 187°
2026-05-08 13:10 -21.65447 -44.16788 27138 ft 428 kts 187°
2026-05-08 13:10 -21.68413 -44.17060 26563 ft 426 kts 187°
2026-05-08 13:11 -21.71358 -44.17331 25994 ft 424 kts 187°
2026-05-08 13:11 -21.74290 -44.17599 25441 ft 422 kts 187°
2026-05-08 13:11 -21.77209 -44.17866 24889 ft 419 kts 187°
2026-05-08 13:11 -21.80108 -44.18132 24355 ft 417 kts 186°
2026-05-08 13:12 -21.82996 -44.18398 23828 ft 415 kts 187°
2026-05-08 13:12 -21.85861 -44.18662 23517 ft 410 kts 187°
2026-05-08 13:12 -21.88664 -44.18918 23392 ft 410 kts 186°
2026-05-08 13:12 -21.91521 -44.18987 23194 ft 412 kts 175°
2026-05-08 13:13 -21.94333 -44.18394 22829 ft 414 kts 163°
2026-05-08 13:13 -21.97014 -44.17246 22269 ft 414 kts 158°
2026-05-08 13:13 -21.99662 -44.16041 21750 ft 412 kts 158°
2026-05-08 13:13 -22.02293 -44.14844 21248 ft 410 kts 158°
2026-05-08 13:14 -22.04912 -44.13657 20734 ft 408 kts 158°
2026-05-08 13:14 -22.07526 -44.12473 20236 ft 406 kts 158°
2026-05-08 13:14 -22.10127 -44.11295 19706 ft 405 kts 157°
2026-05-08 13:14 -22.12727 -44.10118 19216 ft 404 kts 157°
2026-05-08 13:15 -22.15297 -44.08958 18953 ft 396 kts 158°
2026-05-08 13:15 -22.17827 -44.07817 18509 ft 393 kts 157°
2026-05-08 13:15 -22.20332 -44.06688 17706 ft 388 kts 157°
2026-05-08 13:15 -22.22821 -44.05564 17206 ft 389 kts 157°
2026-05-08 13:16 -22.25313 -44.04435 16720 ft 388 kts 157°
2026-05-08 13:16 -22.27796 -44.03312 16248 ft 386 kts 156°
2026-05-08 13:16 -22.30273 -44.02190 15762 ft 385 kts 156°
2026-05-08 13:16 -22.32732 -44.01074 15284 ft 382 kts 156°
2026-05-08 13:17 -22.35178 -43.99965 14813 ft 381 kts 156°
2026-05-08 13:17 -22.37618 -43.98859 14336 ft 380 kts 156°
2026-05-08 13:17 -22.40059 -43.97751 13868 ft 380 kts 156°
2026-05-08 13:17 -22.42489 -43.96649 13355 ft 378 kts 156°
2026-05-08 13:18 -22.44911 -43.95552 12883 ft 376 kts 156°
2026-05-08 13:18 -22.47315 -43.94463 12426 ft 374 kts 156°
2026-05-08 13:18 -22.49707 -43.93379 11963 ft 371 kts 156°
2026-05-08 13:18 -22.52082 -43.92301 11504 ft 369 kts 156°
2026-05-08 13:19 -22.54421 -43.91239 11043 ft 367 kts 156°
2026-05-08 13:19 -22.56753 -43.90178 10749 ft 355 kts 156°
2026-05-08 13:19 -22.58954 -43.89179 10623 ft 331 kts 156°
2026-05-08 13:19 -22.61036 -43.88235 10236 ft 320 kts 156°
2026-05-08 13:20 -22.63080 -43.87306 9650 ft 318 kts 156°
2026-05-08 13:20 -22.65115 -43.86375 9316 ft 317 kts 156°
2026-05-08 13:20 -22.67144 -43.85445 9052 ft 317 kts 156°
2026-05-08 13:20 -22.69170 -43.84520 8787 ft 316 kts 156°
2026-05-08 13:21 -22.71195 -43.83595 8528 ft 316 kts 156°
2026-05-08 13:21 -22.73221 -43.82670 8252 ft 315 kts 156°
2026-05-08 13:21 -22.75233 -43.81754 8002 ft 312 kts 156°
2026-05-08 13:21 -22.77231 -43.80849 7776 ft 311 kts 156°
2026-05-08 13:22 -22.79220 -43.79947 7553 ft 310 kts 156°
2026-05-08 13:22 -22.81208 -43.79040 7330 ft 310 kts 155°
2026-05-08 13:22 -22.83197 -43.78128 7128 ft 309 kts 155°
2026-05-08 13:22 -22.85181 -43.77218 7048 ft 309 kts 155°
2026-05-08 13:23 -22.87137 -43.76324 7058 ft 310 kts 155°
2026-05-08 13:23 -22.89124 -43.75419 7059 ft 310 kts 155°
2026-05-08 13:23 -22.91114 -43.74511 7055 ft 310 kts 155°
2026-05-08 13:23 -22.93080 -43.73558 7052 ft 309 kts 148°
2026-05-08 13:24 -22.94791 -43.72181 7057 ft 305 kts 131°
2026-05-08 13:24 -22.96097 -43.70404 7057 ft 300 kts 116°
2026-05-08 13:24 -22.97084 -43.68424 7054 ft 298 kts 113°
2026-05-08 13:24 -22.98059 -43.66432 7054 ft 299 kts 113°
2026-05-08 13:25 -22.98905 -43.64388 7055 ft 294 kts 100°
2026-05-08 13:25 -22.99166 -43.62227 7050 ft 286 kts 82°
2026-05-08 13:25 -22.98839 -43.60135 6854 ft 276 kts 65°
2026-05-08 13:25 -22.98063 -43.58256 6688 ft 271 kts 58°
2026-05-08 13:26 -22.97262 -43.56444 6521 ft 261 kts 58°
2026-05-08 13:26 -22.96500 -43.54699 6362 ft 249 kts 59°
2026-05-08 13:26 -22.95777 -43.53043 6202 ft 237 kts 58°
2026-05-08 13:26 -22.95085 -43.51462 6060 ft 228 kts 58°
2026-05-08 13:27 -22.94419 -43.49933 5874 ft 220 kts 57°
2026-05-08 13:27 -22.93811 -43.48495 5640 ft 203 kts 57°
2026-05-08 13:27 -22.93219 -43.47103 5445 ft 207 kts 60°
2026-05-08 13:27 -22.92607 -43.45678 5204 ft 213 kts 57°
2026-05-08 13:28 -22.91980 -43.44208 4958 ft 216 kts 58°
2026-05-08 13:28 -22.91355 -43.42738 4733 ft 213 kts 59°
2026-05-08 13:28 -22.90735 -43.41274 4541 ft 215 kts 60°
2026-05-08 13:28 -22.90120 -43.39817 4367 ft 209 kts 60°
2026-05-08 13:29 -22.89530 -43.38420 4201 ft 197 kts 60°
2026-05-08 13:29 -22.88967 -43.37087 4021 ft 192 kts 60°
2026-05-08 13:29 -22.88469 -43.35754 3836 ft 192 kts 70°
2026-05-08 13:29 -22.88302 -43.34309 3673 ft 196 kts 86°
2026-05-08 13:30 -22.88358 -43.32835 3492 ft 194 kts 87°
2026-05-08 13:30 -22.88408 -43.31396 3324 ft 189 kts 87°
2026-05-08 13:30 -22.88457 -43.29997 3151 ft 183 kts 88°
2026-05-08 13:30 -22.88503 -43.28647 2965 ft 176 kts 88°
2026-05-08 13:31 -22.88547 -43.27332 2819 ft 173 kts 88°
2026-05-08 13:31 -22.88716 -43.26042 2660 ft 175 kts 105°
2026-05-08 13:31 -22.89168 -43.24816 2428 ft 175 kts 109°
2026-05-08 13:31 -22.89617 -43.23613 2215 ft 169 kts 109°
2026-05-08 13:32 -22.90043 -43.22469 2018 ft 160 kts 109°
2026-05-08 13:32 -22.90461 -43.21378 1808 ft 155 kts 115°
2026-05-08 13:32 -22.91087 -43.20441 1617 ft 153 kts 134°
2026-05-08 13:32 -22.91952 -43.19769 1427 ft 153 kts 154°
2026-05-08 13:33 -22.92970 -43.19427 1229 ft 153 kts 171°
2026-05-08 13:33 -22.93987 -43.19111 1039 ft 152 kts 144°
2026-05-08 13:33 -22.94609 -43.18238 863 ft 146 kts 104°
2026-05-08 13:33 -22.94581 -43.17192 686 ft 141 kts 68°
2026-05-08 13:34 -22.93970 -43.16391 491 ft 140 kts 29°
2026-05-08 13:34 -22.93025 -43.16160 316 ft 141 kts 355°
2026-05-08 13:34 -22.92060 -43.16223 111 ft 140 kts 359°
2026-05-08 13:34 -22.91120 -43.16279 23 ft 123 kts 358°
2026-05-08 13:35 -22.90602 -43.16311 24 ft 32 kts 356°
2026-05-08 13:35 -22.90493 -43.16347 24 ft 15 kts 292°
2026-05-08 13:35 -22.90495 -43.16456 23 ft 10 kts 266°
2026-05-08 13:35 -22.90499 -43.16520 22 ft 8 kts 265°
2026-05-08 13:36 -22.90529 -43.16556 22 ft 6 kts 186°
2026-05-08 13:36 -22.90569 -43.16553 24 ft 5 kts 175°
2026-05-08 13:36 -22.90603 -43.16551 22 ft 6 kts 178°
2026-05-08 13:36 -22.90664 -43.16548 22 ft 11 kts 177°
2026-05-08 13:37 -22.90738 -43.16543 22 ft 11 kts 176°
2026-05-08 13:37 -22.90815 -43.16547 22 ft 10 kts 192°
2026-05-08 13:37 -22.90885 -43.16548 24 ft 11 kts 175°
2026-05-08 13:37 -22.90960 -43.16542 22 ft 10 kts 176°
2026-05-08 13:38 -22.91034 -43.16537 22 ft 12 kts 175°
2026-05-08 13:38 -22.91121 -43.16521 22 ft 12 kts 168°
2026-05-08 13:38 -22.91200 -43.16514 22 ft 11 kts 176°
2026-05-08 13:38 -22.91232 -43.16512 22 ft 4 kts 178°
2026-05-08 13:39 -22.91240 -43.16523 22 ft 1 kts 253°
2026-05-08 13:39 -22.91243 -43.16547 22 ft 4 kts 265°
2026-05-08 13:39 -22.91245 -43.16576 22 ft 3 kts 268°
2026-05-08 13:39 -22.91245 -43.16581 22 ft 0 kts 266°